LogoCoinalyze
    Ad-Free Version ホーム マーケット一覧 資金調達率一覧
    先物データ
    • 集計データ (コイン一覧)
    • 個別チャート
    • 全体チャート
    アラート
    TA
    Bitcoin Ethereum BNB Ripple Tron ZCash Dogecoin Monero Chainlink UNUS SED LEO Cardano Stellar Lumens Bitcoin Cash Litecoin Hedera Cronos Polkadot Ethereum Classic Dash Algorand Cosmos Quant VeChain Bitcoin SV BitTorrent Terra Decred Tezos The Graph Iota THETA NEO Decentraland Chiliz MultiversX Horizen Golem Basic Attention Token Qtum DigiByte 0x Beam RIF Token FTX Token FUNToken Holo Zilliqa aelf Ontology Enjin Coin Nano Ravencoin Verge Mask Network Siacoin WINk Status Waves IoTeX Power Ledger iExec RLC Steem Kyber Network Crystal IOST Lisk Ark Ardor WOO Network WAX Icon Storj Wanchain Loopring Bitcoin Diamond AdEx Bitcoin Gold Augur OmiseGO NEM MonaCoin BitShares Ren Komodo V Systems Nuls Mithril SOLVE EOS Maker Aion HedgeTrade Nebulas QASH Fantom Fetch.ai GXChain TomoChain Polygon Bytom Waltonchain Bread Metaverse ETP MaidSafeCoin
    注文する:
    その他
    • API
    • ローソク足パターン
    • 寄付する
    • お問い合わせ
    • サイトマップ
    • Privacy Policy
    • Disclaimer
    • Theme:
    日本語
    • English
    • Français
    • Русский
    • Deutsch
    • Türkçe
    • Nederlands
    • Português (BR)
    • Español
    • 한국어
    • 简体中文
     
    ログイン / サインアップ
    Markets/ Pepe/ PEPE to EUR/ PEPEEUR Kraken
    Trades
    WL
    チャット
    統計
    ニュース
    ⦷
    AAA
    0.000003118 55264572.97534000 20:42:33
    0.000003118 5458000.00000000 20:42:33
    0.000003117 154827225.74302000 20:41:41
    0.000003117 10907600.00000000 20:41:41
    0.000003114 5458000.00000000 20:38:31
    0.000003114 55320296.24463000 20:38:31
    0.000003115 5458000.00000000 20:38:11
    0.000003115 55302421.89858000 20:38:11
    0.000003118 5458000.00000000 20:37:39
    0.000003118 55249116.92098000 20:37:39
    0.000003118 55248984.82872000 20:37:09
    0.000003118 5458000.00000000 20:37:09
    0.000003118 5458000.00000000 20:36:58
    0.000003117 5458000.00000000 20:36:58
    0.000003118 5458000.00000000 20:36:57
    0.000003116 306713184.00000000 20:36:57
    0.000003116 5458000.00000000 20:36:57
    0.000003116 215448752.82104000 20:36:57
    0.000003116 39807700.00000000 20:36:57
    0.000003116 685296880.05128002 20:36:56
    0.000003116 5458000.00000000 20:36:56
    0.000003115 39645212.65087001 20:36:56
    0.000003115 556214149.90646005 20:36:56
    0.000003115 11555518.32540000 20:36:56
    0.000003115 141209719.66000000 20:36:56
    0.000003115 5458000.00000000 20:36:56
    0.000003113 166088637.99456999 20:36:56
    0.000003113 5458000.00000000 20:36:56
    0.000003112 33589219.49000000 20:36:56
    0.000003111 5458000.00000000 20:27:53
    0.000003112 758949674.99541998 20:27:53
    0.000003112 7638429.06000000 20:27:53
    0.000003108 7638429.06000000 20:24:01
    0.000003112 5458000.00000000 20:21:56
    0.000003112 55358667.57860000 20:21:56
    0.000003114 8906498.00000000 20:21:09
    0.000003114 5160849.00000000 20:21:08
    0.000003114 5146022.00000000 20:21:07
    0.000003114 5134734.00000000 20:21:06
    0.000003114 2574053.94000000 20:21:05
    0.000003115 2544527.06000000 20:21:05
    0.000003115 5093902.00000000 20:21:04
    0.000003115 2111758.94000000 20:21:03
    0.000003115 2962914.06000000 20:21:03
    0.000003115 2495085.94000000 20:21:02
    0.000003115 2574048.06000000 20:21:02
    0.000003115 5064381.00000000 20:21:01
    0.000003114 5060455.00000000 20:21:00
    0.000003114 5046963.00000000 20:20:59
    0.000003114 5036695.00000000 20:20:58
    0.000003114 5025609.00000000 20:20:57
    0.000003114 5022606.00000000 20:20:56
    0.000003114 5019166.00000000 20:20:55
    0.000003114 5008963.00000000 20:20:54
    0.000003114 4551455.00000000 20:20:53
    0.000003114 454591.00000000 20:20:53
    0.000003114 5003409.00000000 20:20:52
    0.000003115 5001314.00000000 20:20:51
    0.000003116 77448866.41530000 20:20:32
    0.000003116 5458000.00000000 20:20:32
    0.000003115 55320977.97030000 20:20:32
    0.000003115 5458000.00000000 20:20:32
    0.000003114 55325396.48949000 20:20:25
    0.000003112 846151411.36028004 20:20:24
    0.000003112 8156476.85040000 20:20:24
    0.000003111 8156476.85040000 20:20:24
    0.000003109 82798200.00000000 20:20:24
    0.000003109 5458000.00000000 20:20:24
    0.000003108 55432027.80340000 20:20:24
    0.000003119 140199986.22000000 20:15:18
    0.000003123 7638429.06000000 20:13:58
    0.000003122 55185004.27697000 20:12:29
    0.000003122 5458000.00000000 20:12:29
    0.000003121 5458000.00000000 20:12:29
    0.000003115 7638429.06000000 20:08:54
    0.000003115 902681561.06851995 20:05:15
    0.000003115 5458000.00000000 20:05:15
    0.000003113 12649359.88080000 20:05:15
    0.000003112 34274713.77000001 20:05:15
    0.000003111 12649359.88080000 20:05:15
    0.000003112 34974197.72000000 20:03:03
    0.000003117 55261426.64591000 20:01:58
    0.000003108 7638429.06000000 19:58:34
    0.000003108 5458000.00000000 19:58:34
    0.000003109 3901576.06948000 19:51:36
    0.000003099 55584212.46435000 19:49:42
    0.000003099 5458000.00000000 19:49:42
    0.000003100 5458000.00000000 19:49:42
    0.000003099 5458000.00000000 19:49:37
    0.000003102 5458000.00000000 19:49:23
    0.000003108 60889888.66054000 19:48:36
    0.000003111 158998521.31375000 19:48:17
    0.000003115 5458000.00000000 19:46:24
    0.000003124 4019407.00000000 19:43:54
    0.000003124 4325524.00000000 19:43:53
    0.000003124 4296434.00000000 19:43:52
    0.000003124 4284246.00000000 19:43:51
    0.000003124 4276381.00000000 19:43:50
    0.000003124 4269963.00000000 19:43:49
    0.000003124 4262922.00000000 19:43:48
    ログアウト
    AAA
    ヘルプ
    🙂 🤣 😎 🤗 😛 😉 😜 🤑 🤔 😑 😴 😕 🙃 😲 😇 🙁 😢 😬 😟 😠 🕺 🏃 💪 ✌ 👌 👍 👎 👏 👋 🤝 🍺 🍻 🐋 🐟 🦈 🗽 🚄 ✈ 🛑 🚀 🏦 🌚 ⭐ 🌞 ⚡ 🏆 💰 💲 🔨 ❓ ❗ 💯 🔶 🏁
    ☺
    ログイン または サインアップ してチャット
    24時間
    変化
    +1.04%
    出来高
    77,526,456,884
    最高値
    0.000003192
    最安値
    0.000002968
    7日間
    変化
    -2.29%
    出来高
    616,162,860,282
    最高値
    0.000003334
    最安値
    0.000002902
    30日間
    変化
    +25.32%
    出来高
    2,559,836,277,240
    最高値
    0.000003891
    最安値
    0.000002190
    DOGE, SHIB, PEPE, or Something Else: Which Meme Coin Can Make History in September? (3 AIs Weigh In)
    "DOGE remains the most likely to record the largest move in dollar terms and lead the entire sector," ChatGPT stated.
    cryptopotato.com
    Sept 3, 2026 00:41
    Pepe price rallies 25% as whale demand and futures interest surge
    Key takeaways Pepe has gained 25% this week, including a combined 22% advance over the previous two days. Seven whale transactions worth more than $1 million each occurred Thursday, the highest...
    coinjournal.net
    Aug 21, 2026 08:41
    PEPE Supply on Exchanges Just Took a Massive Hit – What’s Next?
    A drop in PEPE exchange balances has added to bullish expectations despite muted trader interest.
    cryptopotato.com
    Aug 6, 2026 20:02
    PEPE Exchange Outflows Hit Nearly 2-Year High as Whales Accumulate
    Pepe (PEPE) recorded its largest single-day exchange outflow since November 2024, with 4.54 trillion tokens leaving trading platforms, signaling that holders are moving supply away from immediate...
    beincrypto.com
    Aug 6, 2026 04:57
    Meme Coin Based on White House Shooter Conspiracy Rallies 320%
    $HENRY surged 300% after a 2023 Pepe tweet appeared to name the White House shooter, fueling a viral time-travel meme. The post Meme Coin Based on White House Shooter Conspiracy Rallies 320%...
    beincrypto.com
    Apr 27, 2026 16:11
    PEPE surges 4% as market sentiment improves, eyes Key resistance breakout
    Key takeaways Pepe extends gains on Wednesday, stretching its rally from the 50-day EMA. Derivatives data show heightened retail activity as risk-on sentiment returns to the market. Pepe (PEPE) is...
    coinjournal.net
    Apr 22, 2026 11:44
    Why The PEPE Price Could Stage A 55X Rally To Reach New $0.0001 ATH
    The PEPE price has now started to edge back into bullish conversations after the recent inflows into the crypto market. The last time PEPE’s weekly chart printed the kind of structure now...
    newsbtc.com
    Apr 21, 2026 15:30
    Pepe (PEPE) surges 9%, drawing interest from whales
    Key takeaways PEPE is up 9% in the last 24 hours, making it one of the best performers among the top 50 cryptocurrencies by market cap. The rally comes amid renewed interest from whales and retail...
    coinjournal.net
    Apr 16, 2026 07:40
    Murad Says SPX6900 (SPX) Is Primed for a Rally — Is He Right This Time?
    Crypto influencer Murad Mahmudov claims SPX6900 (SPX) is stabilizing at the same market cap level where Dogecoin (DOGE) and Pepe (PEPE) consolidated before their explosive rallies. The...
    beincrypto.com
    Apr 5, 2026 21:36
    The Shiba Inu Of This Cycle: Analyst Shares Why It Is Better To Buy PEPE Now
    In the bull market cycle of 2021-2022, the Shiba Inu meme coin made waves in a way that changed the face of meme coins forever. This came after Dogecoin’s initial 36,000% rally, and Shiba Inu...
    newsbtc.com
    Apr 4, 2026 07:30
    PEPE Explodes by 18% Amid Altcoin Rally, BTC Tapped $74K: Market Watch
    The frog-themed meme coin is today's biggest gainer, followed by TAO, DOT, and BONK.
    cryptopotato.com
    Mar 16, 2026 10:56
    Should PEPE traders brace for volatility as short squeeze potential builds?
    The memecoin market has seen its collective market capitalization drop by 48% over the past year, and 6.9% over the past month, according to CoinMarketCap. According to Glassnode, the memecoin...
    ambcrypto.com
    Mar 7, 2026 18:00
    チャットでコマンドを入力するだけです。 nick1を実際のニックネームに置き換えてください
    • /ignore nick1 チャットユーザーを無視する
    • /unignore nick1 チャットユーザーを無視しない
    • /ignorelist 無視したチャットユーザーを表示する